Simultaneous Nadir Overpasses (SNOs) Predictions

Prediction of SNOs between AQUA and METOP-A Satellite Orbit:

Table of predicted SNOs for the next 14.0 days since TLE Epoch: 1/9/2021
Index Date (AQUA) Time (AQUA) Lat,Lon (AQUA) SZA (AQUA ) Date (METOP-A) Time (METOP-A) Lat,Lon (METOP-A) SZA (METOP-A ) Distance(km) Time Diff (sec)
1 01/10/2021 04:11:58 76.94, 102.61 99.29 01/10/2021 04:11:24 76.92, 102.56 99.27 3.42 34
2 01/10/2021 05:01:25 -76.99, -89.92 80.67 01/10/2021 05:02:04 -76.99, -89.81 80.68 2.76 39
3 01/12/2021 23:46:12 76.96, 169.00 98.87 01/12/2021 23:45:45 76.95, 169.02 98.87 1.65 27
4 01/13/2021 00:35:39 -77.00, -23.52 81.09 01/13/2021 00:36:26 -76.98, -23.52 81.12 2.25 47
5 01/15/2021 19:20:27 76.98,-124.64 98.41 01/15/2021 19:20:07 76.97,-124.54 98.40 2.79 20
6 01/15/2021 20:09:54 -77.02, 42.87 81.56 01/15/2021 20:10:48 -77.01, 42.94 81.58 1.91 54
7 01/18/2021 14:05:07 -76.62, 135.46 82.57 01/18/2021 14:04:00 -76.52, 132.76 82.47 70.63 67
8 01/18/2021 14:54:41 76.96, -58.12 97.84 01/18/2021 14:54:29 77.00, -58.10 97.88 3.93 12
9 01/18/2021 15:44:09 -77.04, 109.23 82.08 01/18/2021 15:45:10 -77.04, 109.38 82.11 3.80 61
10 01/21/2021 09:39:28 -76.93,-159.20 82.79 01/21/2021 09:38:15 -76.86,-159.64 82.81 13.76 73
11 01/21/2021 10:28:55 76.99, 8.20 97.28 01/21/2021 10:28:51 76.97, 8.15 97.27 2.71 4



Historial Predications of SNOs between AQUA and METOP-A
